Location: Hobi?a Gr?di?te
(45.4833°N, 22.7833°E)
Time: 12:06:19
(UTC+00:00)

Cosmos 1140 Rocket - Pass Details

Date: 28 January 2023
Orbit: 744 x 766 km, 74.1° (Epoch: 20 March)

Event Time Altitude Azimuth Distance (km) Brightness Sun altitude
Rises 16:23:41 0° 179° (S) 3,203 6.9 -9.8°
Reaches altitude 10° 16:26:09 10° 172° (S) 2,279 6.1 -10.2°
Maximum altitude 16:30:58 40° 103° (ESE) 1,096 3.9 -11.0°
Drops below altitude 10° 16:35:46 10° 35° (NE) 2,281 5.5 -11.8°
Enters shadow 16:36:34 - 32° (NNE) 2,576 5.8 -11.9°
